Year,Month,Day,Hour,Minute,Value (Times are PST for windspeed in km/hr)
2016,03,12,00,00,0.00
2016,03,12,00,01,0.00
2016,03,12,00,02,0.00
2016,03,12,00,03,0.00
2016,03,12,00,04,0.00
2016,03,12,00,05,0.00
2016,03,12,00,06,0.00
2016,03,12,00,07,1.40
2016,03,12,00,08,3.50
2016,03,12,00,09,3.90
2016,03,12,00,10,3.10
2016,03,12,00,11,2.60
2016,03,12,00,12,3.10
2016,03,12,00,13,3.90
2016,03,12,00,14,5.10
2016,03,12,00,15,5.00
2016,03,12,00,16,5.10
2016,03,12,00,17,4.40
2016,03,12,00,18,4.30
2016,03,12,00,19,3.70
2016,03,12,00,20,3.60
2016,03,12,00,21,4.30
2016,03,12,00,22,5.40
2016,03,12,00,23,5.80
2016,03,12,00,24,6.40
2016,03,12,00,25,4.20
2016,03,12,00,26,3.00
2016,03,12,00,27,4.70
2016,03,12,00,28,5.80
2016,03,12,00,29,5.70
2016,03,12,00,30,4.90
2016,03,12,00,31,3.90
2016,03,12,00,32,2.60
2016,03,12,00,33,2.50
2016,03,12,00,34,1.70
2016,03,12,00,35,0.40
2016,03,12,00,36,0.00
2016,03,12,00,37,0.00
2016,03,12,00,38,0.00
2016,03,12,00,39,0.00
2016,03,12,00,40,0.00
2016,03,12,00,41,0.00
2016,03,12,00,42,0.00
2016,03,12,00,43,0.00
2016,03,12,00,44,0.00
2016,03,12,00,45,0.00
2016,03,12,00,46,0.00
2016,03,12,00,47,0.00
2016,03,12,00,48,0.00
2016,03,12,00,49,0.00
2016,03,12,00,50,0.00
2016,03,12,00,51,4.20
2016,03,12,00,52,5.40
2016,03,12,00,53,5.70
2016,03,12,00,54,5.20
2016,03,12,00,55,4.10
2016,03,12,00,56,4.90
2016,03,12,00,57,5.00
2016,03,12,00,58,4.90
2016,03,12,00,59,5.30
2016,03,12,01,00,5.60
2016,03,12,01,01,5.60
2016,03,12,01,02,5.30
2016,03,12,01,03,5.10
2016,03,12,01,04,5.10
2016,03,12,01,05,4.90
2016,03,12,01,06,3.70
2016,03,12,01,07,3.50
2016,03,12,01,08,3.40
2016,03,12,01,09,2.30
2016,03,12,01,10,1.20
2016,03,12,01,11,0.00
2016,03,12,01,12,0.00
2016,03,12,01,13,2.00
2016,03,12,01,14,5.30
2016,03,12,01,15,6.00
2016,03,12,01,16,6.40
2016,03,12,01,17,5.60
2016,03,12,01,18,4.60
2016,03,12,01,19,4.70
2016,03,12,01,20,5.30
2016,03,12,01,21,6.10
2016,03,12,01,22,6.40
2016,03,12,01,23,5.60
2016,03,12,01,24,4.70
2016,03,12,01,25,4.40
2016,03,12,01,26,4.40
2016,03,12,01,27,5.30
2016,03,12,01,28,5.20
2016,03,12,01,29,4.70
2016,03,12,01,30,3.20
2016,03,12,01,31,2.10
2016,03,12,01,32,0.50
2016,03,12,01,33,0.00
2016,03,12,01,34,2.90
2016,03,12,01,35,4.50
2016,03,12,01,36,4.80
2016,03,12,01,37,4.80
2016,03,12,01,38,4.60
2016,03,12,01,39,4.40
2016,03,12,01,40,3.90
2016,03,12,01,41,2.70
2016,03,12,01,42,0.70
2016,03,12,01,43,0.00
2016,03,12,01,44,0.00
2016,03,12,01,45,0.00
2016,03,12,01,46,0.00
2016,03,12,01,47,0.00
2016,03,12,01,48,0.00
2016,03,12,01,49,0.00
2016,03,12,01,50,0.20
2016,03,12,01,51,0.00
2016,03,12,01,52,0.00
2016,03,12,01,53,0.00
2016,03,12,01,54,0.70
2016,03,12,01,55,7.00
2016,03,12,01,56,6.70
2016,03,12,01,57,6.40
2016,03,12,01,58,5.30
2016,03,12,01,59,4.80
2016,03,12,02,00,4.50
2016,03,12,02,01,4.70
2016,03,12,02,02,4.70
2016,03,12,02,03,5.00
2016,03,12,02,04,5.60
2016,03,12,02,05,6.00
2016,03,12,02,06,5.90
2016,03,12,02,07,6.10
2016,03,12,02,08,6.70
2016,03,12,02,09,7.50
2016,03,12,02,10,8.10
2016,03,12,02,11,8.90
2016,03,12,02,12,9.80
2016,03,12,02,13,11.00
2016,03,12,02,14,11.20
2016,03,12,02,15,11.20
2016,03,12,02,16,10.30
2016,03,12,02,17,10.90
2016,03,12,02,18,10.30
2016,03,12,02,19,11.20
2016,03,12,02,20,10.50
2016,03,12,02,21,10.70
2016,03,12,02,22,9.80
2016,03,12,02,23,8.60
2016,03,12,02,24,8.10
2016,03,12,02,25,6.80
2016,03,12,02,26,5.90
2016,03,12,02,27,3.70
2016,03,12,02,28,2.40
2016,03,12,02,29,1.80
2016,03,12,02,30,1.80
2016,03,12,02,31,3.80
2016,03,12,02,32,3.90
2016,03,12,02,33,4.40
2016,03,12,02,34,6.10
2016,03,12,02,35,8.20
2016,03,12,02,36,10.10
2016,03,12,02,37,9.30
2016,03,12,02,38,5.60
2016,03,12,02,39,2.50
2016,03,12,02,40,0.60
2016,03,12,02,41,0.00
2016,03,12,02,42,0.00
2016,03,12,02,43,0.00
2016,03,12,02,44,0.00
2016,03,12,02,45,0.00
2016,03,12,02,46,0.00
2016,03,12,02,47,0.00
2016,03,12,02,48,0.00
2016,03,12,02,49,0.00
2016,03,12,02,50,0.00
2016,03,12,02,51,0.00
2016,03,12,02,52,1.00
2016,03,12,02,53,1.20
2016,03,12,02,54,0.00
2016,03,12,02,55,0.00
2016,03,12,02,56,0.00
2016,03,12,02,57,0.00
2016,03,12,02,58,0.00
2016,03,12,02,59,4.80
2016,03,12,03,00,5.70
2016,03,12,03,01,6.40
2016,03,12,03,02,6.10
2016,03,12,03,03,5.00
2016,03,12,03,04,4.70
2016,03,12,03,05,3.10
2016,03,12,03,06,0.50
2016,03,12,03,07,0.00
2016,03,12,03,08,0.00
2016,03,12,03,09,0.00
2016,03,12,03,10,0.00
2016,03,12,03,11,0.00
2016,03,12,03,12,0.00
2016,03,12,03,13,4.70
2016,03,12,03,14,8.40
2016,03,12,03,15,11.20
2016,03,12,03,16,10.60
2016,03,12,03,17,10.00
2016,03,12,03,18,9.30
2016,03,12,03,19,8.70
2016,03,12,03,20,8.20
2016,03,12,03,21,8.20
2016,03,12,03,22,9.40
2016,03,12,03,23,9.90
2016,03,12,03,24,10.20
2016,03,12,03,25,10.10
2016,03,12,03,26,10.20
2016,03,12,03,27,9.60
2016,03,12,03,28,9.00
2016,03,12,03,29,8.50
2016,03,12,03,30,6.80
2016,03,12,03,31,5.10
2016,03,12,03,32,2.40
2016,03,12,03,33,0.10
2016,03,12,03,34,0.00
2016,03,12,03,35,0.00
2016,03,12,03,36,0.00
2016,03,12,03,37,0.00
2016,03,12,03,38,0.00
2016,03,12,03,39,0.00
2016,03,12,03,40,0.50
2016,03,12,03,41,5.50
2016,03,12,03,42,6.80
2016,03,12,03,43,10.20
2016,03,12,03,44,10.30
2016,03,12,03,45,10.70
2016,03,12,03,46,9.90
2016,03,12,03,47,6.40
2016,03,12,03,48,4.00
2016,03,12,03,49,3.90
2016,03,12,03,50,3.90
2016,03,12,03,51,4.40
2016,03,12,03,52,4.30
2016,03,12,03,53,4.80
2016,03,12,03,54,6.10
2016,03,12,03,55,6.60
2016,03,12,03,56,7.70
2016,03,12,03,57,8.50
2016,03,12,03,58,8.10
2016,03,12,03,59,7.20
2016,03,12,04,00,5.90
2016,03,12,04,01,6.00
2016,03,12,04,02,6.80
2016,03,12,04,03,7.60
2016,03,12,04,04,7.30
2016,03,12,04,05,7.20
2016,03,12,04,06,5.30
2016,03,12,04,07,5.50
2016,03,12,04,08,7.40
2016,03,12,04,09,6.90
2016,03,12,04,10,5.80
2016,03,12,04,11,4.90
2016,03,12,04,12,6.60
2016,03,12,04,13,7.10
2016,03,12,04,14,7.40
2016,03,12,04,15,7.50
2016,03,12,04,16,10.90
2016,03,12,04,17,13.40
2016,03,12,04,18,15.80
2016,03,12,04,19,14.90
2016,03,12,04,20,14.50
2016,03,12,04,21,13.90
2016,03,12,04,22,14.20
2016,03,12,04,23,14.70
2016,03,12,04,24,14.40
2016,03,12,04,25,15.60
2016,03,12,04,26,16.30
2016,03,12,04,27,17.10
2016,03,12,04,28,19.00
2016,03,12,04,29,18.00
2016,03,12,04,30,17.40
2016,03,12,04,31,17.80
2016,03,12,04,32,19.20
2016,03,12,04,33,18.70
2016,03,12,04,34,19.50
2016,03,12,04,35,20.50
2016,03,12,04,36,17.60
2016,03,12,04,37,16.40
2016,03,12,04,38,16.00
2016,03,12,04,39,16.60
2016,03,12,04,40,17.20
2016,03,12,04,41,17.20
2016,03,12,04,42,16.20
2016,03,12,04,43,15.50
2016,03,12,04,44,14.20
2016,03,12,04,45,16.10
2016,03,12,04,46,17.90
2016,03,12,04,47,14.40
2016,03,12,04,48,11.20
2016,03,12,04,49,7.50
2016,03,12,04,50,11.50
2016,03,12,04,51,14.50
2016,03,12,04,52,14.30
2016,03,12,04,53,15.40
2016,03,12,04,54,14.60
2016,03,12,04,55,12.90
2016,03,12,04,56,11.70
2016,03,12,04,57,12.60
2016,03,12,04,58,14.50
2016,03,12,04,59,13.00
2016,03,12,05,00,13.40
2016,03,12,05,01,11.80
2016,03,12,05,02,10.40
2016,03,12,05,03,8.20
2016,03,12,05,04,5.60
2016,03,12,05,05,4.70
2016,03,12,05,06,5.40
2016,03,12,05,07,4.50
2016,03,12,05,08,2.60
2016,03,12,05,09,0.20
2016,03,12,05,10,0.00
2016,03,12,05,11,0.00
2016,03,12,05,12,0.00
2016,03,12,05,13,0.00
2016,03,12,05,14,0.00
2016,03,12,05,15,0.30
2016,03,12,05,16,3.70
2016,03,12,05,17,4.90
2016,03,12,05,18,5.30
2016,03,12,05,19,5.80
2016,03,12,05,20,6.40
2016,03,12,05,21,6.90
2016,03,12,05,22,8.50
2016,03,12,05,23,10.20
2016,03,12,05,24,9.80
2016,03,12,05,25,9.10
2016,03,12,05,26,9.70
2016,03,12,05,27,11.00
2016,03,12,05,28,11.60
2016,03,12,05,29,12.90
2016,03,12,05,30,14.70
2016,03,12,05,31,16.70
2016,03,12,05,32,17.90
2016,03,12,05,33,19.50
2016,03,12,05,34,21.50
2016,03,12,05,35,21.90
2016,03,12,05,36,22.60
2016,03,12,05,37,20.90
2016,03,12,05,38,18.80
2016,03,12,05,39,16.60
2016,03,12,05,40,14.10
2016,03,12,05,41,13.50
2016,03,12,05,42,13.20
2016,03,12,05,43,13.10
2016,03,12,05,44,11.90
2016,03,12,05,45,7.10
2016,03,12,05,46,3.70
2016,03,12,05,47,0.50
2016,03,12,05,48,0.00
2016,03,12,05,49,0.00
2016,03,12,05,50,0.00
2016,03,12,05,51,0.00
2016,03,12,05,52,0.00
2016,03,12,05,53,0.00
2016,03,12,05,54,0.00
2016,03,12,05,55,0.00
2016,03,12,05,56,0.50
2016,03,12,05,57,4.40
2016,03,12,05,58,5.40
2016,03,12,05,59,6.10
2016,03,12,06,00,7.70
2016,03,12,06,01,7.80
2016,03,12,06,02,6.90
2016,03,12,06,03,5.90
2016,03,12,06,04,5.30
2016,03,12,06,05,4.70
2016,03,12,06,06,5.10
2016,03,12,06,07,4.80
2016,03,12,06,08,5.00
2016,03,12,06,09,5.20
2016,03,12,06,10,6.10
2016,03,12,06,11,6.20
2016,03,12,06,12,6.90
2016,03,12,06,13,7.60
2016,03,12,06,14,8.10
2016,03,12,06,15,9.10
2016,03,12,06,16,9.90
2016,03,12,06,17,9.80
2016,03,12,06,18,11.50
2016,03,12,06,19,13.60
2016,03,12,06,20,14.70
2016,03,12,06,21,15.50
2016,03,12,06,22,16.40
2016,03,12,06,23,17.90
2016,03,12,06,24,19.10
2016,03,12,06,25,19.00
2016,03,12,06,26,18.50
2016,03,12,06,27,16.10
2016,03,12,06,28,15.20
2016,03,12,06,29,16.40
2016,03,12,06,30,18.20
2016,03,12,06,31,16.30
2016,03,12,06,32,15.10
2016,03,12,06,33,15.70
2016,03,12,06,34,17.60
2016,03,12,06,35,17.60
2016,03,12,06,36,17.20
2016,03,12,06,37,17.90
2016,03,12,06,38,18.00
2016,03,12,06,39,18.50
2016,03,12,06,40,17.80
2016,03,12,06,41,17.50
2016,03,12,06,42,16.80
2016,03,12,06,43,17.90
2016,03,12,06,44,18.60
2016,03,12,06,45,18.80
2016,03,12,06,46,18.10
2016,03,12,06,47,17.10
2016,03,12,06,48,17.60
2016,03,12,06,49,17.30
2016,03,12,06,50,15.60
2016,03,12,06,51,13.00
2016,03,12,06,52,12.50
2016,03,12,06,53,10.40
2016,03,12,06,54,10.00
2016,03,12,06,55,8.80
2016,03,12,06,56,8.50
2016,03,12,06,57,9.60
2016,03,12,06,58,10.70
2016,03,12,06,59,11.80
2016,03,12,07,00,11.20
2016,03,12,07,01,10.20
2016,03,12,07,02,10.00
2016,03,12,07,03,10.80
2016,03,12,07,04,10.60
2016,03,12,07,05,11.80
2016,03,12,07,06,12.60
2016,03,12,07,07,13.60
2016,03,12,07,08,14.80
2016,03,12,07,09,14.20
2016,03,12,07,10,13.90
2016,03,12,07,11,14.20
2016,03,12,07,12,15.40
2016,03,12,07,13,13.30
2016,03,12,07,14,13.10
2016,03,12,07,15,11.70
2016,03,12,07,16,9.70
2016,03,12,07,17,10.10
2016,03,12,07,18,13.10
2016,03,12,07,19,10.10
2016,03,12,07,20,13.00
2016,03,12,07,21,17.10
2016,03,12,07,22,24.80
2016,03,12,07,23,27.00
2016,03,12,07,24,26.00
2016,03,12,07,25,24.70
2016,03,12,07,26,25.80
2016,03,12,07,27,27.70
2016,03,12,07,28,31.20
2016,03,12,07,29,30.60
2016,03,12,07,30,30.80
2016,03,12,07,31,36.40
2016,03,12,07,32,35.60
2016,03,12,07,33,30.30
2016,03,12,07,34,29.00
2016,03,12,07,35,34.30
2016,03,12,07,36,33.90
2016,03,12,07,37,34.10
2016,03,12,07,38,29.40
2016,03,12,07,39,29.60
2016,03,12,07,40,29.00
2016,03,12,07,41,28.00
2016,03,12,07,42,27.90
2016,03,12,07,43,29.00
2016,03,12,07,44,29.90
2016,03,12,07,45,30.30
2016,03,12,07,46,30.70
2016,03,12,07,47,32.00
2016,03,12,07,48,32.30
2016,03,12,07,49,31.00
2016,03,12,07,50,34.50
2016,03,12,07,51,34.20
2016,03,12,07,52,34.00
2016,03,12,07,53,38.40
2016,03,12,07,54,38.90
2016,03,12,07,55,38.90
2016,03,12,07,56,39.80
2016,03,12,07,57,41.30
2016,03,12,07,58,41.20
2016,03,12,07,59,40.90
2016,03,12,08,00,38.90
2016,03,12,08,01,37.50
2016,03,12,08,02,35.50
2016,03,12,08,03,38.10
2016,03,12,08,04,36.30
2016,03,12,08,05,31.80
2016,03,12,08,06,28.40
2016,03,12,08,07,27.00
2016,03,12,08,08,28.20
2016,03,12,08,09,27.20
2016,03,12,08,10,27.40
2016,03,12,08,11,26.30
2016,03,12,08,12,25.80
2016,03,12,08,13,25.10
2016,03,12,08,14,30.30
2016,03,12,08,15,32.10
2016,03,12,08,16,32.20
2016,03,12,08,17,32.20
2016,03,12,08,18,34.70
2016,03,12,08,19,33.20
2016,03,12,08,20,32.40
2016,03,12,08,21,30.70
2016,03,12,08,22,32.30
2016,03,12,08,23,34.70
2016,03,12,08,24,34.40
2016,03,12,08,25,35.70
2016,03,12,08,26,33.50
2016,03,12,08,27,33.10
2016,03,12,08,28,34.30
2016,03,12,08,29,37.90
2016,03,12,08,30,35.40
2016,03,12,08,31,34.60
2016,03,12,08,32,32.60
2016,03,12,08,33,32.10
2016,03,12,08,34,32.30
2016,03,12,08,35,35.50
2016,03,12,08,36,35.10
2016,03,12,08,37,32.50
2016,03,12,08,38,37.10
2016,03,12,08,39,34.90
2016,03,12,08,40,34.90
2016,03,12,08,41,36.90
2016,03,12,08,42,34.00
2016,03,12,08,43,32.00
2016,03,12,08,44,33.00
2016,03,12,08,45,31.20
2016,03,12,08,46,30.00
2016,03,12,08,47,31.60
2016,03,12,08,48,31.60
2016,03,12,08,49,32.30
2016,03,12,08,50,34.50
2016,03,12,08,51,33.60
2016,03,12,08,52,35.20
2016,03,12,08,53,31.60
2016,03,12,08,54,29.10
2016,03,12,08,55,30.30
2016,03,12,08,56,30.10
2016,03,12,08,57,27.00
2016,03,12,08,58,30.70
2016,03,12,08,59,30.60
2016,03,12,09,00,30.40
2016,03,12,09,01,29.70
2016,03,12,09,02,30.70
2016,03,12,09,03,30.10
2016,03,12,09,04,27.10
2016,03,12,09,05,25.30
2016,03,12,09,06,25.70
2016,03,12,09,07,24.90
2016,03,12,09,08,23.40
2016,03,12,09,09,23.10
2016,03,12,09,10,22.10
2016,03,12,09,11,22.40
2016,03,12,09,12,22.80
2016,03,12,09,13,24.50
2016,03,12,09,14,22.00
2016,03,12,09,15,22.50
2016,03,12,09,16,21.70
2016,03,12,09,17,22.20
2016,03,12,09,18,22.50
2016,03,12,09,19,18.50
2016,03,12,09,20,18.40
2016,03,12,09,21,21.00
2016,03,12,09,22,19.00
2016,03,12,09,23,20.90
2016,03,12,09,24,21.60
2016,03,12,09,25,21.40
2016,03,12,09,26,22.50
2016,03,12,09,27,23.20
2016,03,12,09,28,24.60
2016,03,12,09,29,24.80
2016,03,12,09,30,24.50
2016,03,12,09,31,23.70
2016,03,12,09,32,22.10
2016,03,12,09,33,21.40
2016,03,12,09,34,20.60
2016,03,12,09,35,20.90
2016,03,12,09,36,19.70
2016,03,12,09,37,19.10
2016,03,12,09,38,18.50
2016,03,12,09,39,19.00
2016,03,12,09,40,19.90
2016,03,12,09,41,19.10
2016,03,12,09,42,15.60
2016,03,12,09,43,15.60
2016,03,12,09,44,14.30
2016,03,12,09,45,13.80
2016,03,12,09,46,14.80
2016,03,12,09,47,14.60
2016,03,12,09,48,16.10
2016,03,12,09,49,15.60
2016,03,12,09,50,17.00
2016,03,12,09,51,16.90
2016,03,12,09,52,18.10
2016,03,12,09,53,20.30
2016,03,12,09,54,19.50
2016,03,12,09,55,20.20
2016,03,12,09,56,20.70
2016,03,12,09,57,23.40
2016,03,12,09,58,20.90
2016,03,12,09,59,19.60
2016,03,12,10,00,19.80
2016,03,12,10,01,18.30
2016,03,12,10,02,19.00
2016,03,12,10,03,18.20
2016,03,12,10,04,18.30
2016,03,12,10,05,19.60
2016,03,12,10,06,21.20
2016,03,12,10,07,20.80
2016,03,12,10,08,19.80
2016,03,12,10,09,22.00
2016,03,12,10,10,20.60
2016,03,12,10,11,20.90
2016,03,12,10,12,22.00
2016,03,12,10,13,21.70
2016,03,12,10,14,19.80
2016,03,12,10,15,19.20
2016,03,12,10,16,18.30
2016,03,12,10,17,20.00
2016,03,12,10,18,20.40
2016,03,12,10,19,23.30
2016,03,12,10,20,22.80
2016,03,12,10,21,23.20
2016,03,12,10,22,23.30
2016,03,12,10,23,22.80
2016,03,12,10,24,20.80
2016,03,12,10,25,19.80
2016,03,12,10,26,17.90
2016,03,12,10,27,16.70
2016,03,12,10,28,17.00
2016,03,12,10,29,16.80
2016,03,12,10,30,16.90
2016,03,12,10,31,17.90
2016,03,12,10,32,17.10
2016,03,12,10,33,16.30
2016,03,12,10,34,15.20
2016,03,12,10,35,15.00
2016,03,12,10,36,13.10
2016,03,12,10,37,12.40
2016,03,12,10,38,12.10
2016,03,12,10,39,11.30
2016,03,12,10,40,13.70
2016,03,12,10,41,11.70
2016,03,12,10,42,9.80
2016,03,12,10,43,9.70
2016,03,12,10,44,8.10
2016,03,12,10,45,8.10
2016,03,12,10,46,8.00
2016,03,12,10,47,7.20
2016,03,12,10,48,8.20
2016,03,12,10,49,7.80
2016,03,12,10,50,6.40
2016,03,12,10,51,6.20
2016,03,12,10,52,6.00
2016,03,12,10,53,5.10
2016,03,12,10,54,3.80
2016,03,12,10,55,3.10
2016,03,12,10,56,3.50
2016,03,12,10,57,1.20
2016,03,12,10,58,0.00
2016,03,12,10,59,0.00
2016,03,12,11,00,1.80
2016,03,12,11,01,1.30
2016,03,12,11,02,0.00
2016,03,12,11,03,2.80
2016,03,12,11,04,9.30
2016,03,12,11,05,12.40
2016,03,12,11,06,12.40
2016,03,12,11,07,9.60
2016,03,12,11,08,9.00
2016,03,12,11,09,16.50
2016,03,12,11,10,19.20
2016,03,12,11,11,19.80
2016,03,12,11,12,18.60
2016,03,12,11,13,17.60
2016,03,12,11,14,18.30
2016,03,12,11,15,17.80
2016,03,12,11,16,17.90
2016,03,12,11,17,19.10
2016,03,12,11,18,19.70
2016,03,12,11,19,18.40
2016,03,12,11,20,19.50
2016,03,12,11,21,19.60
2016,03,12,11,22,20.80
2016,03,12,11,23,21.20
2016,03,12,11,24,23.30
2016,03,12,11,25,22.90
2016,03,12,11,26,28.20
2016,03,12,11,27,28.50
2016,03,12,11,28,26.60
2016,03,12,11,29,25.00
2016,03,12,11,30,26.70
2016,03,12,11,31,25.40
2016,03,12,11,32,24.20
2016,03,12,11,33,21.80
2016,03,12,11,34,20.40
2016,03,12,11,35,19.90
2016,03,12,11,36,22.20
2016,03,12,11,37,22.20
2016,03,12,11,38,19.80
2016,03,12,11,39,17.40
2016,03,12,11,40,21.20
2016,03,12,11,41,25.80
2016,03,12,11,42,25.20
2016,03,12,11,43,24.80
2016,03,12,11,44,25.40
2016,03,12,11,45,24.50
2016,03,12,11,46,22.90
2016,03,12,11,47,23.60
2016,03,12,11,48,20.80
2016,03,12,11,49,20.50
2016,03,12,11,50,22.20
2016,03,12,11,51,21.20
2016,03,12,11,52,20.80
2016,03,12,11,53,21.90
2016,03,12,11,54,21.00
2016,03,12,11,55,23.50
2016,03,12,11,56,26.40
2016,03,12,11,57,26.90
2016,03,12,11,58,28.40
2016,03,12,11,59,28.70
2016,03,12,12,00,27.80
2016,03,12,12,01,26.00
2016,03,12,12,02,27.30
2016,03,12,12,03,25.70
2016,03,12,12,04,24.30
2016,03,12,12,05,24.40
2016,03,12,12,06,24.20
2016,03,12,12,07,24.20
2016,03,12,12,08,22.60
2016,03,12,12,09,22.40
2016,03,12,12,10,23.00
2016,03,12,12,11,23.10
2016,03,12,12,12,22.90
2016,03,12,12,13,23.50
2016,03,12,12,14,22.20
2016,03,12,12,15,23.10
2016,03,12,12,16,23.00
2016,03,12,12,17,22.50
2016,03,12,12,18,23.40
2016,03,12,12,19,22.40
2016,03,12,12,20,21.70
2016,03,12,12,21,20.50
2016,03,12,12,22,20.40
2016,03,12,12,23,19.20
2016,03,12,12,24,18.30
2016,03,12,12,25,19.90
2016,03,12,12,26,18.90
2016,03,12,12,27,19.90
2016,03,12,12,28,17.50
2016,03,12,12,29,19.20
2016,03,12,12,30,20.70
2016,03,12,12,31,19.50
2016,03,12,12,32,19.20
2016,03,12,12,33,18.50
2016,03,12,12,34,18.60
2016,03,12,12,35,18.70
2016,03,12,12,36,17.10
2016,03,12,12,37,15.60
2016,03,12,12,38,16.00
2016,03,12,12,39,15.50
2016,03,12,12,40,16.10
2016,03,12,12,41,15.40
2016,03,12,12,42,15.70
2016,03,12,12,43,15.30
2016,03,12,12,44,16.20
2016,03,12,12,45,16.20
2016,03,12,12,46,17.20
2016,03,12,12,47,18.40
2016,03,12,12,48,18.00
2016,03,12,12,49,16.70
2016,03,12,12,50,16.90
2016,03,12,12,51,16.10
2016,03,12,12,52,17.50
2016,03,12,12,53,18.10
2016,03,12,12,54,17.90
2016,03,12,12,55,18.00
2016,03,12,12,56,16.80
2016,03,12,12,57,16.30
2016,03,12,12,58,17.80
2016,03,12,12,59,17.50
2016,03,12,13,00,17.90
2016,03,12,13,01,17.40
2016,03,12,13,02,17.10
2016,03,12,13,03,16.90
2016,03,12,13,04,15.80
2016,03,12,13,05,14.40
2016,03,12,13,06,14.20
2016,03,12,13,07,14.00
2016,03,12,13,08,13.60
2016,03,12,13,09,14.10
2016,03,12,13,10,14.20
2016,03,12,13,11,12.50
2016,03,12,13,12,12.20
2016,03,12,13,13,13.00
2016,03,12,13,14,13.00
2016,03,12,13,15,11.90
2016,03,12,13,16,11.30
2016,03,12,13,17,10.80
2016,03,12,13,18,10.30
2016,03,12,13,19,10.90
2016,03,12,13,20,10.10
2016,03,12,13,21,9.70
2016,03,12,13,22,9.60
2016,03,12,13,23,9.30
2016,03,12,13,24,8.80
2016,03,12,13,25,9.00
2016,03,12,13,26,9.10
2016,03,12,13,27,8.70
2016,03,12,13,28,9.10
2016,03,12,13,29,9.70
2016,03,12,13,30,10.10
2016,03,12,13,31,9.20
2016,03,12,13,32,9.70
2016,03,12,13,33,10.60
2016,03,12,13,34,9.60
2016,03,12,13,35,8.70
2016,03,12,13,36,9.00
2016,03,12,13,37,10.10
2016,03,12,13,38,11.50
2016,03,12,13,39,11.00
2016,03,12,13,40,10.60
2016,03,12,13,41,10.70
2016,03,12,13,42,10.70
2016,03,12,13,43,10.70
2016,03,12,13,44,10.90
2016,03,12,13,45,10.70
2016,03,12,13,46,11.50
2016,03,12,13,47,11.50
2016,03,12,13,48,11.50
2016,03,12,13,49,11.10
2016,03,12,13,50,10.40
2016,03,12,13,51,8.90
2016,03,12,13,52,9.30
2016,03,12,13,53,10.00
2016,03,12,13,54,10.20
2016,03,12,13,55,9.90
2016,03,12,13,56,10.90
2016,03,12,13,57,12.30
2016,03,12,13,58,10.40
2016,03,12,13,59,11.30
2016,03,12,14,00,8.80
2016,03,12,14,01,8.10
2016,03,12,14,02,9.40
2016,03,12,14,03,8.50
2016,03,12,14,04,8.10
2016,03,12,14,05,8.10
2016,03,12,14,06,8.80
2016,03,12,14,07,7.90
2016,03,12,14,08,8.20
2016,03,12,14,09,8.40
2016,03,12,14,10,7.70
2016,03,12,14,11,7.00
2016,03,12,14,12,9.50
2016,03,12,14,13,10.20
2016,03,12,14,14,9.40
2016,03,12,14,15,9.60
2016,03,12,14,16,9.20
2016,03,12,14,17,8.70
2016,03,12,14,18,7.40
2016,03,12,14,19,7.10
2016,03,12,14,20,6.20
2016,03,12,14,21,6.30
2016,03,12,14,22,8.90
2016,03,12,14,23,9.30
2016,03,12,14,24,10.20
2016,03,12,14,25,10.20
2016,03,12,14,26,10.10
2016,03,12,14,27,10.40
2016,03,12,14,28,10.10
2016,03,12,14,29,11.10
2016,03,12,14,30,9.90
2016,03,12,14,31,9.40
2016,03,12,14,32,8.50
2016,03,12,14,33,8.30
2016,03,12,14,34,7.80
2016,03,12,14,35,8.20
2016,03,12,14,36,8.50
2016,03,12,14,37,9.10
2016,03,12,14,38,9.30
2016,03,12,14,39,9.40
2016,03,12,14,40,9.50
2016,03,12,14,41,9.60
2016,03,12,14,42,8.90
2016,03,12,14,43,10.00
2016,03,12,14,44,11.00
2016,03,12,14,45,11.50
2016,03,12,14,46,12.20
2016,03,12,14,47,12.70
2016,03,12,14,48,13.80
2016,03,12,14,49,13.00
2016,03,12,14,50,11.30
2016,03,12,14,51,11.60
2016,03,12,14,52,12.80
2016,03,12,14,53,13.60
2016,03,12,14,54,12.80
2016,03,12,14,55,11.70
2016,03,12,14,56,14.00
2016,03,12,14,57,16.20
2016,03,12,14,58,13.30
2016,03,12,14,59,13.00
2016,03,12,15,00,15.00
2016,03,12,15,01,18.70
2016,03,12,15,02,18.10
2016,03,12,15,03,13.80
2016,03,12,15,04,16.20
2016,03,12,15,05,19.10
2016,03,12,15,06,21.90
2016,03,12,15,07,22.50
2016,03,12,15,08,23.20
2016,03,12,15,09,22.10
2016,03,12,15,10,21.20
2016,03,12,15,11,20.30
2016,03,12,15,12,22.00
2016,03,12,15,13,21.80
2016,03,12,15,14,23.20
2016,03,12,15,15,25.80
2016,03,12,15,16,24.80
2016,03,12,15,17,24.90
2016,03,12,15,18,25.40
2016,03,12,15,19,26.80
2016,03,12,15,20,26.80
2016,03,12,15,21,28.70
2016,03,12,15,22,29.70
2016,03,12,15,23,30.80
2016,03,12,15,24,31.20
2016,03,12,15,25,31.10
2016,03,12,15,26,33.60
2016,03,12,15,27,32.80
2016,03,12,15,28,33.60
2016,03,12,15,29,34.10
2016,03,12,15,30,33.90
2016,03,12,15,31,31.70
2016,03,12,15,32,32.00
2016,03,12,15,33,31.90
2016,03,12,15,34,32.70
2016,03,12,15,35,32.80
2016,03,12,15,36,32.30
2016,03,12,15,37,32.80
2016,03,12,15,38,34.70
2016,03,12,15,39,34.50
2016,03,12,15,40,34.80
2016,03,12,15,41,34.30
2016,03,12,15,42,35.30
2016,03,12,15,43,34.40
2016,03,12,15,44,34.60
2016,03,12,15,45,33.70
2016,03,12,15,46,33.90
2016,03,12,15,47,39.80
2016,03,12,15,48,40.80
2016,03,12,15,49,38.10
2016,03,12,15,50,37.80
2016,03,12,15,51,40.40
2016,03,12,15,52,38.90
2016,03,12,15,53,40.80
2016,03,12,15,54,43.50
2016,03,12,15,55,41.00
2016,03,12,15,56,40.00
2016,03,12,15,57,39.30
2016,03,12,15,58,38.30
2016,03,12,15,59,36.60
2016,03,12,16,00,35.40
2016,03,12,16,01,33.40
2016,03,12,16,02,32.60
2016,03,12,16,03,33.60
2016,03,12,16,04,36.00
2016,03,12,16,05,34.30
2016,03,12,16,06,33.90
2016,03,12,16,07,34.80
2016,03,12,16,08,33.20
2016,03,12,16,09,34.00
2016,03,12,16,10,32.30
2016,03,12,16,11,32.00
2016,03,12,16,12,31.00
2016,03,12,16,13,31.10
2016,03,12,16,14,29.50
2016,03,12,16,15,27.90
2016,03,12,16,16,24.90
2016,03,12,16,17,22.00
2016,03,12,16,18,23.80
2016,03,12,16,19,26.40
2016,03,12,16,20,29.90
2016,03,12,16,21,29.10
2016,03,12,16,22,31.60
2016,03,12,16,23,31.60
2016,03,12,16,24,32.00
2016,03,12,16,25,31.90
2016,03,12,16,26,28.70
2016,03,12,16,27,27.40
2016,03,12,16,28,25.80
2016,03,12,16,29,30.30
2016,03,12,16,30,30.60
2016,03,12,16,31,30.60
2016,03,12,16,32,30.60
2016,03,12,16,33,30.60
2016,03,12,16,34,30.60
2016,03,12,16,35,30.60
2016,03,12,16,36,30.60
2016,03,12,16,37,26.10
2016,03,12,16,38,24.80
2016,03,12,16,39,27.70
2016,03,12,16,40,24.50
2016,03,12,16,41,24.40
2016,03,12,16,42,26.10
2016,03,12,16,43,25.80
2016,03,12,16,44,27.40
2016,03,12,16,45,23.60
2016,03,12,16,46,28.30
2016,03,12,16,47,31.00
2016,03,12,16,48,28.20
2016,03,12,16,49,24.60
2016,03,12,16,50,21.50
2016,03,12,16,51,20.10
2016,03,12,16,52,20.00
2016,03,12,16,53,20.80
2016,03,12,16,54,22.30
2016,03,12,16,55,22.20
2016,03,12,16,56,23.10
2016,03,12,16,57,20.80
2016,03,12,16,58,21.10
2016,03,12,16,59,21.30
2016,03,12,17,00,22.70
2016,03,12,17,01,22.90
2016,03,12,17,02,22.10
2016,03,12,17,03,24.20
2016,03,12,17,04,27.10
2016,03,12,17,05,27.10
2016,03,12,17,06,24.90
2016,03,12,17,07,23.00
2016,03,12,17,08,20.20
2016,03,12,17,09,23.40
2016,03,12,17,10,27.00
2016,03,12,17,11,23.20
2016,03,12,17,12,24.80
2016,03,12,17,13,25.90
2016,03,12,17,14,24.90
2016,03,12,17,15,24.60
2016,03,12,17,16,26.40
2016,03,12,17,17,24.70
2016,03,12,17,18,24.70
2016,03,12,17,19,25.10
2016,03,12,17,20,24.10
2016,03,12,17,21,21.80
2016,03,12,17,22,25.70
2016,03,12,17,23,26.10
2016,03,12,17,24,26.40
2016,03,12,17,25,24.10
2016,03,12,17,26,24.30
2016,03,12,17,27,23.00
2016,03,12,17,28,21.80
2016,03,12,17,29,21.40
2016,03,12,17,30,21.80
2016,03,12,17,31,21.20
2016,03,12,17,32,21.80
2016,03,12,17,33,22.20
2016,03,12,17,34,20.50
2016,03,12,17,35,19.40